| time (UTC) | temp F | wind direction | speed MPH | gust MPH | rain 1hr in | rain 24hr in | rain mn in | humidity % | barometer mb |
| 20260509121504 | 43 | 30 | 4.0 | 10.0 | 0.00 | 0.02 | 0.02 | 84 | 1009.5 |
| 20260509120006 | 43 | 32 | 4.0 | 10.0 | 0.00 | 0.02 | 0.02 | 85 | 1009.2 |
| 20260509114510 | 43 | 58 | 3.0 | 10.0 | 0.00 | 0.02 | 0.02 | 86 | 1009.1 |
| 20260509113002 | 43 | 36 | 3.0 | 10.0 | 0.00 | 0.02 | 0.02 | 86 | 1008.8 |
| 20260509111504 | 44 | 21 | 3.0 | 11.0 | 0.00 | 0.02 | 0.02 | 86 | 1008.6 |
| 20260509110019 | 45 | 41 | 4.0 | 9.0 | 0.00 | 0.02 | 0.02 | 86 | 1008.5 |
| 20260509104514 | 45 | 32 | 2.0 | 9.0 | 0.00 | 0.02 | 0.02 | 86 | 1008.2 |
| 20260509103025 | 46 | 26 | 4.0 | 10.0 | 0.00 | 0.02 | 0.02 | 85 | 1008.0 |
| 20260509101508 | 46 | 13 | 5.0 | 11.0 | 0.00 | 0.02 | 0.02 | 85 | 1007.9 |
| 20260509100011 | 47 | 55 | 5.0 | 14.0 | 0.00 | 0.02 | 0.02 | 85 | 1007.6 |
| 20260509094516 | 48 | 49 | 4.0 | 12.0 | 0.00 | 0.02 | 0.02 | 84 | 1007.2 |
| 20260509093026 | 49 | 26 | 8.0 | 14.0 | 0.01 | 0.02 | 0.02 | 82 | 1006.8 |
| 20260509091508 | 50 | 10 | 7.0 | 13.0 | 0.02 | 0.02 | 0.02 | 79 | 1006.8 |
| 20260509090009 | 51 | 5 | 2.0 | 8.0 | 0.02 | 0.02 | 0.02 | 79 | 1006.5 |
| 20260509084516 | 51 | 5 | 1.0 | 9.0 | 0.02 | 0.02 | 0.02 | 78 | 1006.7 |
| 20260509083021 | 51 | 15 | 1.0 | 7.0 | 0.01 | 0.01 | 0.01 | 78 | 1006.2 |
| 20260509081508 | 51 | 65 | 0.0 | 0.0 | 0.00 | 0.00 | 0.00 | 80 | 1005.8 |
| 20260509080010 | 51 | 65 | 0.0 | 0.0 | 0.00 | 0.00 | 0.00 | 77 | 1006.1 |
| 20260509074520 | 52 | 65 | 0.0 | 2.0 | 0.00 | 0.00 | 0.00 | 73 | 1006.0 |
| 20260509073023 | 52 | 64 | 1.0 | 6.0 | 0.00 | 0.00 | 0.00 | 71 | 1005.8 |
| 20260509071508 | 53 | 56 | 4.0 | 10.0 | 0.00 | 0.00 | 0.00 | 70 | 1005.7 |
| 20260509070009 | 53 | 74 | 6.0 | 13.0 | 0.00 | 0.00 | 0.00 | 68 | 1005.7 |
| 20260509064518 | 54 | 36 | 10.0 | 21.0 | 0.00 | 0.00 | 0.00 | 65 | 1005.8 |
| 20260509063026 | 55 | 67 | 7.0 | 22.0 | 0.00 | 0.00 | 0.00 | 61 | 1005.1 |
| 20260509061526 | 56 | 5 | 7.0 | 16.0 | 0.00 | 0.00 | 0.00 | 56 | 1004.9 |
| 20260509060017 | 56 | 35 | 5.0 | 14.0 | 0.00 | 0.00 | 0.00 | 51 | 1004.4 |
| 20260509054525 | 57 | 23 | 3.0 | 9.0 | 0.00 | 0.00 | 0.00 | 46 | 1004.3 |
| 20260509053101 | 57 | 324 | 10.0 | 19.0 | 0.00 | 0.00 | 0.00 | 42 | 1004.0 |
| 20260509051527 | 57 | 305 | 2.0 | 11.0 | 0.00 | 0.00 | 0.00 | 41 | 1003.3 |
| 20260509050034 | 56 | 271 | 7.0 | 12.0 | 0.00 | 0.00 | 0.00 | 41 | 1003.4 |
| 20260509044522 | 55 | 284 | 5.0 | 12.0 | 0.00 | 0.00 | 0.00 | 42 | 1003.3 |
| 20260509043025 | 54 | 257 | 4.0 | 13.0 | 0.00 | 0.00 | 0.00 | 46 | 1003.3 |
| 20260509041512 | 53 | 267 | 3.0 | 9.0 | 0.00 | 0.00 | 0.00 | 47 | 1003.4 |
| 20260509040018 | 54 | 264 | 4.0 | 9.0 | 0.00 | 0.00 | 0.00 | 46 | 1003.7 |
| 20260509034522 | 54 | 257 | 4.0 | 8.0 | 0.00 | 0.00 | 0.00 | 45 | 1003.8 |
| 20260509033024 | 55 | 270 | 3.0 | 7.0 | 0.00 | 0.00 | 0.00 | 45 | 1003.8 |
| 20260509031512 | 56 | 298 | 0.0 | 3.0 | 0.00 | 0.00 | 0.00 | 44 | 1003.8 |
| 20260509030028 | 58 | 298 | 1.0 | 3.0 | 0.00 | 0.00 | 0.00 | 41 | 1003.8 |
| 20260509024521 | 60 | 298 | 0.0 | 2.0 | 0.00 | 0.00 | 0.00 | 38 | 1004.0 |
| 20260509023035 | 61 | 298 | 2.0 | 5.0 | 0.00 | 0.00 | 0.00 | 36 | 1004.0 |
| 20260509021513 | 62 | 316 | 1.0 | 3.0 | 0.00 | 0.00 | 0.00 | 35 | 1004.0 |
| 20260509020016 | 63 | 316 | 2.0 | 4.0 | 0.00 | 0.00 | 0.00 | 34 | 1004.3 |
| 20260509014523 | 65 | 350 | 0.0 | 2.0 | 0.00 | 0.00 | 0.00 | 32 | 1004.4 |
| 20260509013029 | 66 | 350 | 1.0 | 4.0 | 0.00 | 0.00 | 0.00 | 31 | 1004.6 |
| 20260509011514 | 67 | 350 | 2.0 | 5.0 | 0.00 | 0.00 | 0.00 | 30 | 1004.6 |
| 20260509010021 | 67 | 355 | 1.0 | 6.0 | 0.00 | 0.00 | 0.00 | 28 | 1004.7 |
| 20260509004527 | 68 | 360 | 1.0 | 8.0 | 0.00 | 0.00 | 0.00 | 27 | 1004.9 |
| 20260509003042 | 68 | 308 | 2.0 | 8.0 | 0.00 | 0.00 | 0.00 | 28 | 1005.0 |
| 20260509001515 | 69 | 28 | 8.0 | 15.0 | 0.00 | 0.00 | 0.00 | 27 | 1005.2 |
| 20260509000019 | 69 | 5 | 4.0 | 11.0 | 0.00 | 0.00 | 0.00 | 27 | 1005.3 |
| 20260508234527 | 69 | 317 | 7.0 | 14.0 | 0.00 | 0.00 | 0.00 | 27 | 1005.4 |
| 20260508233026 | 70 | 19 | 6.0 | 17.0 | 0.00 | 0.00 | 0.00 | 26 | 1005.5 |
| 20260508231530 | 70 | 36 | 9.0 | 17.0 | 0.00 | 0.00 | 0.00 | 26 | 1005.7 |
| 20260508230026 | 69 | 346 | 10.0 | 18.0 | 0.00 | 0.00 | 0.00 | 27 | 1005.8 |
| 20260508224528 | 70 | 15 | 9.0 | 18.0 | 0.00 | 0.00 | 0.00 | 26 | 1006.0 |
| 20260508223028 | 70 | 33 | 8.0 | 25.0 | 0.00 | 0.00 | 0.00 | 26 | 1005.8 |
| 20260508221506 | 70 | 32 | 8.0 | 21.0 | 0.00 | 0.00 | 0.00 | 24 | 1005.9 |
| 20260508220004 | 70 | 10 | 13.0 | 21.0 | 0.00 | 0.00 | 0.00 | 24 | 1005.8 |
| 20260508214507 | 71 | 10 | 7.0 | 21.0 | 0.00 | 0.00 | 0.00 | 25 | 1005.9 |
| 20260508213002 | 71 | 348 | 8.0 | 24.0 | 0.00 | 0.00 | 0.00 | 23 | 1005.9 |
| 20260508211503 | 71 | 33 | 10.0 | 21.0 | 0.00 | 0.00 | 0.00 | 24 | 1005.9 |
| 20260508210006 | 71 | 29 | 12.0 | 22.0 | 0.00 | 0.00 | 0.00 | 24 | 1005.8 |
| 20260508204510 | 71 | 57 | 10.0 | 24.0 | 0.00 | 0.00 | 0.00 | 23 | 1005.8 |
| 20260508203002 | 71 | 27 | 9.0 | 18.0 | 0.00 | 0.00 | 0.00 | 23 | 1005.8 |
| 20260508201504 | 71 | 343 | 9.0 | 21.0 | 0.00 | 0.00 | 0.00 | 24 | 1005.9 |
| 20260508200007 | 71 | 144 | 6.0 | 21.0 | 0.00 | 0.00 | 0.00 | 27 | 1005.8 |
| 20260508194510 | 70 | 26 | 13.0 | 22.0 | 0.00 | 0.00 | 0.00 | 23 | 1005.8 |
| 20260508193005 | 71 | 9 | 5.0 | 21.0 | 0.00 | 0.00 | 0.00 | 25 | 1005.7 |
| 20260508191504 | 71 | 348 | 9.0 | 18.0 | 0.00 | 0.00 | 0.00 | 24 | 1005.7 |
| 20260508190007 | 70 | 49 | 8.0 | 23.0 | 0.00 | 0.00 | 0.00 | 25 | 1005.6 |
| 20260508184510 | 71 | 360 | 5.0 | 18.0 | 0.00 | 0.00 | 0.00 | 27 | 1005.7 |
| 20260508183019 | 70 | 9 | 7.0 | 17.0 | 0.00 | 0.00 | 0.00 | 27 | 1005.7 |
| 20260508181504 | 69 | 341 | 10.0 | 22.0 | 0.00 | 0.00 | 0.00 | 28 | 1005.7 |
| 20260508180008 | 70 | 11 | 9.0 | 17.0 | 0.00 | 0.00 | 0.00 | 27 | 1005.9 |
| 20260508174529 | 70 | 332 | 9.0 | 16.0 | 0.00 | 0.00 | 0.00 | 30 | 1005.9 |
| 20260508173020 | 70 | 9 | 7.0 | 14.0 | 0.00 | 0.00 | 0.00 | 27 | 1005.9 |
| 20260508171506 | 70 | 15 | 2.0 | 16.0 | 0.00 | 0.00 | 0.00 | 28 | 1005.9 |
| 20260508170010 | 71 | 32 | 4.0 | 11.0 | 0.00 | 0.00 | 0.00 | 27 | 1006.0 |
| 20260508164516 | 70 | 350 | 3.0 | 10.0 | 0.00 | 0.00 | 0.00 | 24 | 1006.0 |
| 20260508163038 | 69 | 9 | 4.0 | 11.0 | 0.00 | 0.00 | 0.00 | 24 | 1006.1 |
| 20260508161504 | 68 | 11 | 2.0 | 12.0 | 0.00 | 0.00 | 0.00 | 27 | 1006.2 |
| 20260508160012 | 68 | 10 | 2.0 | 9.0 | 0.00 | 0.00 | 0.00 | 34 | 1006.2 |
| 20260508154515 | 65 | 300 | 2.0 | 9.0 | 0.00 | 0.00 | 0.00 | 38 | 1006.2 |
| 20260508153027 | 62 | 289 | 3.0 | 7.0 | 0.00 | 0.00 | 0.00 | 41 | 1006.4 |
| 20260508151518 | 59 | 300 | 3.0 | 8.0 | 0.00 | 0.00 | 0.00 | 42 | 1006.5 |
| 20260508150010 | 58 | 325 | 0.0 | 6.0 | 0.00 | 0.00 | 0.00 | 44 | 1006.7 |
| 20260508144518 | 57 | 340 | 1.0 | 7.0 | 0.00 | 0.00 | 0.00 | 46 | 1006.8 |
| 20260508143022 | 54 | 311 | 1.0 | 9.0 | 0.00 | 0.00 | 0.00 | 49 | 1006.7 |
| 20260508141527 | 51 | 281 | 0.0 | 6.0 | 0.00 | 0.00 | 0.00 | 51 | 1006.7 |
| 20260508140014 | 50 | 276 | 0.0 | 7.0 | 0.00 | 0.00 | 0.00 | 51 | 1007.0 |
| 20260508134524 | 48 | 248 | 0.0 | 4.0 | 0.00 | 0.00 | 0.00 | 54 | 1006.8 |
| 20260508133026 | 47 | 245 | 1.0 | 5.0 | 0.00 | 0.00 | 0.00 | 54 | 1006.8 |
| 20260508131528 | 46 | 254 | 2.0 | 5.0 | 0.00 | 0.00 | 0.00 | 56 | 1007.1 |
| 20260508130016 | 44 | 244 | 0.0 | 5.0 | 0.00 | 0.00 | 0.00 | 58 | 1007.3 |
| 20260508124521 | 42 | 257 | 1.0 | 3.0 | 0.00 | 0.00 | 0.00 | 60 | 1007.0 |
| 20260508123032 | 40 | 257 | 1.0 | 7.0 | 0.00 | 0.00 | 0.00 | 62 | 1007.1 |